TimeWET,TemperatureF,Dew PointF,Humidity,Sea Level PressureIn,VisibilityMPH,Wind Direction,Wind SpeedMPH,Gust SpeedMPH,PrecipitationIn,Events,Conditions,WindDirDegrees,DateUTC
12:00 AM,55,46,63,29.96,6,WNW,17.3,,,,Scattered Clouds,290,2013-02-20 00:00:00
2:00 AM,53.6,46.4,77,29.95,6.2,SW,5.8,-,N/A,,Partly Cloudy,230,2013-02-20 02:00:00
3:00 AM,53,46,70,29.94,6,West,8.1,,,,Scattered Clouds,280,2013-02-20 03:00:00
3:00 AM,51.8,46.4,82,29.92,6.2,West,8.1,-,N/A,,Partly Cloudy,280,2013-02-20 03:00:00
4:00 AM,53.6,44.6,72,29.92,6.2,West,15.0,-,N/A,,Partly Cloudy,280,2013-02-20 04:00:00
5:00 AM,53.6,44.6,72,29.95,6.2,West,6.9,-,N/A,,Partly Cloudy,260,2013-02-20 05:00:00
6:00 AM,51,44,68,29.97,6,WSW,3.5,,,,Scattered Clouds,240,2013-02-20 06:00:00
6:00 AM,51.8,42.8,71,29.95,6.2,WSW,3.5,-,N/A,,Partly Cloudy,240,2013-02-20 06:00:00
7:00 AM,53.6,44.6,72,29.95,6.2,West,6.9,-,N/A,,Partly Cloudy,260,2013-02-20 07:00:00
8:00 AM,50.0,42.8,76,29.98,6.2,Calm,Calm,-,N/A,,Partly Cloudy,0,2013-02-20 08:00:00
9:00 AM,55,44,56,30.02,6,Calm,Calm,,,,Scattered Clouds,,2013-02-20 09:00:00
9:00 AM,55.4,44.6,67,30.01,6.2,Calm,Calm,-,N/A,,Partly Cloudy,0,2013-02-20 09:00:00
10:00 AM,59.0,44.6,59,30.04,6.2,Calm,Calm,-,N/A,,Partly Cloudy,0,2013-02-20 10:00:00
11:00 AM,62.6,42.8,48,30.04,6.2,West,8.1,-,N/A,,Partly Cloudy,260,2013-02-20 11:00:00
12:00 PM,66,43,31,30.02,6,West,12.7,,,,Scattered Clouds,270,2013-02-20 12:00:00
12:00 PM,66.2,42.8,43,30.01,6.2,West,12.7,-,N/A,,Partly Cloudy,270,2013-02-20 12:00:00
1:00 PM,66.2,46.4,49,29.98,6.2,West,18.4,-,N/A,,Scattered Clouds,260,2013-02-20 13:00:00
2:00 PM,66.2,44.6,46,29.98,6.2,West,20.7,-,N/A,,Scattered Clouds,270,2013-02-20 14:00:00
3:00 PM,65,47,41,29.97,6,West,24.2,,,,Partly Cloudy,280,2013-02-20 15:00:00
3:00 PM,66.2,46.4,49,29.95,6.2,West,24.2,-,N/A,,Scattered Clouds,280,2013-02-20 15:00:00
4:00 PM,64.4,48.2,56,29.95,6.2,West,24.2,-,N/A,,Scattered Clouds,280,2013-02-20 16:00:00
5:00 PM,62.6,50.0,63,29.95,6.2,West,21.9,-,N/A,,Unknown,270,2013-02-20 17:00:00
6:00 PM,61,50,57,29.99,6,West,16.1,,,,Scattered Clouds,260,2013-02-20 18:00:00
6:00 PM,60.8,50.0,68,29.98,6.2,West,16.1,-,N/A,,Partly Cloudy,260,2013-02-20 18:00:00
7:00 PM,59.0,48.2,67,29.98,6.2,West,13.8,-,N/A,,Partly Cloudy,270,2013-02-20 19:00:00
8:00 PM,59.0,50.0,72,30.01,6.2,SW,10.4,-,N/A,,Partly Cloudy,220,2013-02-20 20:00:00
9:00 PM,58,49,64,30.04,6,West,11.5,,,,Scattered Clouds,260,2013-02-20 21:00:00
9:00 PM,59.0,50.0,72,30.04,6.2,West,11.5,-,N/A,,Partly Cloudy,260,2013-02-20 21:00:00
10:00 PM,59.0,48.2,67,30.04,6.2,West,10.4,-,N/A,,Partly Cloudy,260,2013-02-20 22:00:00